Погода в Ла-Кондамин

Монако     43°44′05″N   7°25′29″E
темп.,
°C
ветер,
м/с
пор.,
м/с
влажн.,
%
обл.,
%
осадки,
мм/ч
давл.,
гПа
погр.,
м
19 сентября, вс
вс1923:00+23ссз227225 0.0 1011138
02:00+22в017098 0.1 1010216
05:00+21ссз328166 2.7 1010271
08:00+21юз56713 3.7 1010661
11:00+22юз67690 0.0 1008525
14:00+25юз1010480 0.0 1006572
17:00+25зюз1010460 0.0 1004365
20:00+24в48570 0.0 1006498
20 сентября, пн
пн2023:00+23зюз23660 0.0 1009674
02:00+21зсз56583 0.1 1010529
05:00+21ссз33480 0.0 1010176
08:00+20ссз214829 0.0 1012152
11:00+21ююз21501 0.1 1013328
14:00+21ююз43633 0.1 1014659
17:00+22ююв216014 0.8 1014673
20:00+21ююв116254 1.8 1015404
21 сентября, вт
вт2123:00+21ссв226257 1.0 1017244
02:00+21св336074 1.1 1017138
05:00+21ссв22565 0.7 1017250
08:00+20ссв325684 0.8 1018294
11:00+21юв2256100 0.0 1020394
14:00+22в5562100 0.0 1020715
17:00+22вюв4363100 0.1 1020664
20:00+22в22638 0.2 1021531
22 сентября, ср
ср2223:00+21с326114 0.0 1021251
02:00+21с32555 0.0 1020149
05:00+21ссз224998 0.0 1019113
08:00+21с224755 0.0 1019123
11:00+22ю00453 0.0 1019227
14:00+21ююв22540 0.0 1018347
17:00+21ююв11570 0.0 1016347
20:00+22зсз22570 0.0 1016217
23 сентября, чт
чт2323:00+22з22580 0.0 1017309
02:00+22ссв22585 0.0 1016182
05:00+21св22583 0.0 1016299
08:00+21ссз22570 0.0 1016148
11:00+21юв22615 0.0 1018370
14:00+21ююв32684 0.0 1018398
17:00+20юв11671 0.1 1017370
20:00+21ссз11630 0.1 1017199